Tracking 19176 objects as of 26-May-2018
HD Live streaming from Space Station
objects crossing your sky now

ANIK A2 (TELESAT 2)

Track ANIK A2 (TELESAT 2) now!
ANIK A2 (TELESAT 2) is classified as:


NORAD ID: 6437
Int'l Code: 1973-023A
Perigee: 35,868.2 km
Apogee: 35,982.0 km
Inclination: 13.1 °
Period: 1,442.8 minutes
Semi major axis: 42296 km
RCS: 3.1458 m2 (large)
Launch date: April 20, 1973
Source: Canada (CA)
Launch site: AIR FORCE EASTERN TEST RANGE (AFETR)
aabbcc
Your satellite tracking list
Your tracking list is empty




NASA's NSSDC Master Catalog

Two Line Element Set (TLE):
1  6437U 73023A   18146.27564227 -.00000145 +00000-0 +00000-0 0  9991
2  6437 013.1017 326.0443 0013451 353.3828 020.2887 00.99805056017774
Source of the keplerian elements: AFSPC